Home   Weather   Sochi   Past weeks
Flag for Russia

Past Weather in Sochi, Russia — Yesterday and Last 2 Weeks

Now
73 °F

Scattered clouds.


Feels Like: 76 °F
Forecast: 65 / 53 °F
Wind: 8 mph from West

Location: Adler

Current Time: Sep 20, 2019 at 5:17:45 pm

Latest Report: Sep 20, 2019 at 4:30 pm


Visibility: N/A

Pressure: 29.80 "Hg

Humidity: 69%

Dew Point: 63 °F

Location of SochiLocation

Past Weather in Sochi — Graph

°F

Sochi Temperature Yesterday

Maximum temperature yesterday: 77 °F (at 12:30 pm)
Minimum temperature yesterday: 63 °F (at 2:30 am)
Average temperature yesterday: 68 °F

High & Low Weather Summary for the Past Weeks

 TemperatureHumidityPressure
High82 °F (Sep 6, 12:30 pm)100% (Sep 17, 7:30 am)30.12 "Hg (Sep 17, 7:30 am)
Low59 °F (Sep 18, 4:00 am)42% (Sep 9, 11:00 am)29.80 "Hg (Sep 20, 2:00 pm)
Average70 °F72%29.98 "Hg
* Reported Sep 5 3:00 pm — Sep 20 3:30 pm, Sochi. Weather by CustomWeather, © 2019

Note: Actual official high and low records may vary slightly from our data, if they occured in-between our weather recording intervals... More about our weather records

Advertising

Sochi Weather History for the Previous 24 Hours

Scroll right to see more
 ConditionsComfort  
Time TempWeatherWind HumidityBarometerVisibility
3:30 pm
Fri, Sep 20
75 °FPassing clouds.6 mph69%29.80 "HgN/A
3:00 pm75 °FPassing clouds.8 mph61%29.80 "HgN/A
2:30 pm75 °FPassing clouds.8 mph65%29.80 "HgN/A
2:00 pm77 °FPassing clouds.6 mph61%29.80 "HgN/A
1:30 pm75 °FPassing clouds.3 mph65%29.83 "HgN/A
1:00 pm77 °FPassing clouds.3 mph65%29.83 "HgN/A
12:30 pm75 °FPassing clouds.3 mph65%29.86 "HgN/A
12:00 pm75 °FPassing clouds.6 mph69%29.86 "HgN/A
11:30 am75 °FScattered clouds.3 mph69%29.86 "HgN/A
11:00 am75 °FPartly sunny.6 mph65%29.89 "HgN/A
10:30 am75 °FPartly sunny.6 mph65%29.89 "HgN/A
10:00 am75 °FScattered clouds.1 mph61%29.92 "HgN/A
9:30 am73 °FScattered clouds.8 mph61%29.92 "HgN/A
9:00 am72 °FScattered clouds.8 mph61%29.92 "HgN/A
8:30 am66 °FPartly sunny.8 mph68%29.92 "HgN/A
8:00 am64 °FPartly sunny.10 mph73%29.95 "HgN/A
7:30 am64 °FPartly sunny.8 mph73%29.95 "HgN/A
7:00 am64 °FPartly sunny.10 mph73%29.95 "HgN/A
6:30 am63 °FOvercast.8 mph77%29.95 "HgN/A
6:00 am63 °FPassing clouds.10 mph77%29.95 "HgN/A
5:30 am63 °FPassing clouds.10 mph77%29.95 "HgN/A
5:00 am63 °FPassing clouds.13 mph77%29.95 "HgN/A
4:30 am63 °FPassing clouds.10 mph77%29.98 "HgN/A
4:00 am63 °FPassing clouds.8 mph77%29.98 "HgN/A
3:30 am63 °FPassing clouds.10 mph77%29.98 "HgN/A
3:00 am63 °FPassing clouds.8 mph77%30.01 "HgN/A
2:30 am63 °FClear.8 mph83%30.01 "HgN/A
2:00 am61 °FClear.6 mph83%30.01 "HgN/A
1:30 am61 °FClear.6 mph88%30.01 "HgN/A
1:00 am61 °FClear.8 mph88%30.01 "HgN/A
12:30 am61 °FClear.3 mph88%30.01 "HgN/A
12:00 am61 °FClear.3 mph88%30.01 "HgN/A
11:30 pm
Thu, Sep 19
63 °FClear.3 mph83%30.01 "HgN/A
11:00 pm63 °FClear.6 mph83%30.04 "HgN/A
10:30 pm63 °FClear.6 mph83%30.04 "HgN/A
10:00 pm63 °FClear.6 mph88%30.04 "HgN/A
9:30 pm63 °FClear.6 mph88%30.04 "HgN/A
9:00 pm63 °FClear.6 mph88%30.04 "HgN/A
8:30 pm63 °FClear.3 mph88%30.04 "HgN/A
8:00 pm64 °FClear.3 mph83%30.04 "HgN/A
7:30 pm66 °FClear.3 mph78%30.04 "HgN/A
7:00 pm68 °FClear.No wind69%30.04 "HgN/A
6:30 pm70 °FClear.3 mph64%30.04 "HgN/A
6:00 pm72 °FPassing clouds.6 mph61%30.04 "HgN/A
5:30 pm72 °FScattered clouds.8 mph61%30.04 "HgN/A
5:00 pm73 °FScattered clouds.10 mph53%30.04 "HgN/A
Weather by CustomWeather, © 2019

See weather overview